Hauptseite
METAR-TAF:

METAR-TAF

Flughäfen :

Sarzana, Italien

Militärflugplatz Sarzana-Luni

Breite: 44-05N, Länge: 009-59E, Höhe: 9 m

Beobachtung

Neuester Wetterbericht von vor 4 Stunden und 58 Minuten, um 14:55 UTC
Wind 2 kt aus Süd
Temperatur 10°C
Luftfeuchtigkeit 76%
Luftdruck 1014 hPa
Sichtweite 10 km oder mehr
keine Wolken unter 1500 m und keine Kumulonimbus oder Gewitterwolken

METAR: LIQW 221455Z 17002KT CAVOK 10/06 Q1014 RMK BKN BKN090 VIS MIN 9999 WIND THR18 13003KT BLU

Zeit: 20:53 (19:53 UTC)


TAF: fehlend

Wetterbeobachtungen und Prognosen von mehr als 4000 Flughäfen (METAR und TAF Bericht).

Die verfügbaren Stationen werden durch gelbe und rote Markierungen auf der Karte dargestellt.

Führen Sie die Maus auf sie, um den Namen der Station zu sehen.

Darauf klicken, um die Beobachtung von Wetterbeobachtungen und Prognosen zu sehen.

Um die Karte zu ändern : klicken Sie auf den grünen Tasten mit einem schwarzen Kreuz Zum Vergrößern, auf den grünen Button mit einem Gedankenstrich zu verkleinern, oder auf die grünen Pfeile für benachbarte Karten.


METAR-TAF: